SBI920 UUEE-ULLI

Flight info

Callsign SBI920
Flight time 0h 55m
Altitude 32000
Route TOKNU3H TOKNU L4 NUDKO T561 ODATI T875 GENPA GENPA1V
Aircraft A320/M-SDE3FGHIRWY/LB1

Departure

Time 2026-05-04 11:10
Airport Sheremetyevo International Airport (UUEE)

Arrival

Time 2026-05-04 12:05
Airport Pulkovo Airport (ULLI)
Time Latitude Longitude Altitude Speed Heading
2026-05-04 10:49 55.97784 37.41311 640 ft 0 kts 256°
2026-05-04 10:50 55.97786 37.41325 640 ft 0 kts 256°
2026-05-04 10:51 55.97784 37.41311 640 ft 0 kts 256°
2026-05-04 11:01 55.97791 37.41359 644 ft 2 kts 256°
2026-05-04 11:02 55.97799 37.41401 644 ft 5 kts 214°
2026-05-04 11:02 55.97820 37.41412 640 ft 0 kts 162°
2026-05-04 11:05 55.97674 37.41537 646 ft 17 kts 123°
2026-05-04 11:06 55.97618 37.41720 639 ft 20 kts 82°
2026-05-04 11:06 55.97655 37.41987 642 ft 25 kts 75°
2026-05-04 11:06 55.97703 37.42309 639 ft 29 kts 75°
2026-05-04 11:06 55.97755 37.42646 642 ft 21 kts 77°
2026-05-04 11:08 55.97185 37.41763 646 ft 106 kts 255°
2026-05-04 11:10 55.94793 37.25724 3918 ft 246 kts 255°
2026-05-04 11:12 55.91814 37.03943 10214 ft 270 kts 277°
2026-05-04 11:12 55.92289 37.00708 10978 ft 273 kts 295°
2026-05-04 11:12 55.93371 36.97901 11747 ft 278 kts 314°
2026-05-04 11:12 55.94914 36.95773 12532 ft 283 kts 323°
2026-05-04 11:13 55.96546 36.93763 13300 ft 286 kts 323°
2026-05-04 11:13 55.98197 36.91730 14024 ft 290 kts 323°
2026-05-04 11:13 55.99974 36.89941 14646 ft 299 kts 334°
2026-05-04 11:13 56.02010 36.88656 14899 ft 318 kts 338°
2026-05-04 11:14 56.07007 36.85645 16261 ft 330 kts 335°
2026-05-04 11:16 56.20641 36.64595 20655 ft 351 kts 314°
2026-05-04 11:16 56.22438 36.61581 21153 ft 355 kts 314°
2026-05-04 11:16 56.24281 36.58479 21312 ft 370 kts 314°
2026-05-04 11:17 56.26193 36.55248 21436 ft 383 kts 314°
2026-05-04 11:17 56.28169 36.51906 21581 ft 396 kts 314°
2026-05-04 11:19 56.39694 36.21724 22823 ft 443 kts 290°
2026-05-04 11:19 56.40801 36.16506 23148 ft 445 kts 290°
2026-05-04 11:19 56.41893 36.11335 23452 ft 447 kts 290°
2026-05-04 11:19 56.43003 36.06052 23721 ft 449 kts 290°
2026-05-04 11:20 56.44124 36.00771 23988 ft 451 kts 292°
2026-05-04 11:20 56.45555 35.95717 24258 ft 454 kts 301°
2026-05-04 11:20 56.47410 35.91097 24634 ft 454 kts 308°
2026-05-04 11:20 56.49438 35.86745 25027 ft 452 kts 308°
2026-05-04 11:22 56.63321 35.56377 27923 ft 442 kts 308°
2026-05-04 11:22 56.65278 35.52078 28345 ft 441 kts 308°
2026-05-04 11:23 56.67231 35.47785 28771 ft 440 kts 308°
2026-05-04 11:23 56.69178 35.43502 29200 ft 439 kts 308°
2026-05-04 11:24 56.80647 35.18061 31578 ft 428 kts 308°
2026-05-04 11:25 56.82533 35.13852 31819 ft 427 kts 308°
2026-05-04 11:25 56.86313 35.05386 31861 ft 432 kts 308°
2026-05-04 11:27 57.07562 34.74915 31850 ft 434 kts 324°
2026-05-04 11:28 57.11757 34.69867 31845 ft 434 kts 324°
2026-05-04 11:28 57.16804 34.63783 31837 ft 434 kts 324°
2026-05-04 11:29 57.21849 34.57669 31836 ft 434 kts 323°
2026-05-04 11:29 57.26890 34.51533 31829 ft 434 kts 323°
2026-05-04 11:33 57.62122 34.08096 31826 ft 433 kts 322°
2026-05-04 11:33 57.67133 34.01844 31821 ft 433 kts 322°
2026-05-04 11:34 57.72149 33.95574 31823 ft 434 kts 322°
2026-05-04 11:34 57.77157 33.89268 31804 ft 434 kts 322°
2026-05-04 11:35 57.82171 33.82935 31802 ft 435 kts 322°
2026-05-04 11:35 57.87177 33.76562 31794 ft 434 kts 321°
2026-05-04 11:36 57.91951 33.69755 31797 ft 433 kts 317°
2026-05-04 11:36 57.96572 33.62520 31803 ft 432 kts 316°
2026-05-04 11:37 58.01196 33.55247 31793 ft 433 kts 316°
2026-05-04 11:37 58.05870 33.48054 31798 ft 434 kts 317°
2026-05-04 11:38 58.10566 33.40900 31814 ft 433 kts 317°
2026-05-04 11:38 58.15247 33.33729 31813 ft 433 kts 316°
2026-05-04 11:39 58.19908 33.26527 31801 ft 432 kts 316°
2026-05-04 11:41 58.36202 33.01155 31776 ft 433 kts 316°
2026-05-04 11:41 58.40854 32.93861 31776 ft 433 kts 316°
2026-05-04 11:42 58.45497 32.86535 31796 ft 433 kts 316°
2026-05-04 11:42 58.50143 32.79198 31784 ft 434 kts 316°
2026-05-04 11:43 58.54797 32.71836 31771 ft 434 kts 315°
2026-05-04 11:43 58.59436 32.64433 31768 ft 434 kts 315°
2026-05-04 11:44 58.64049 32.57077 31766 ft 434 kts 315°
2026-05-04 11:44 58.68686 32.49653 31786 ft 434 kts 315°
2026-05-04 11:44 58.71004 32.45926 31572 ft 434 kts 315°
2026-05-04 11:45 58.73313 32.42198 31308 ft 434 kts 315°
2026-05-04 11:45 58.75629 32.38452 30442 ft 437 kts 315°
2026-05-04 11:45 58.77969 32.34662 29215 ft 443 kts 315°
2026-05-04 11:45 58.80344 32.30818 28045 ft 446 kts 315°
2026-05-04 11:46 58.82728 32.26960 26855 ft 449 kts 315°
2026-05-04 11:46 58.85127 32.23071 25646 ft 453 kts 315°
2026-05-04 11:46 58.87545 32.19142 24451 ft 455 kts 315°
2026-05-04 11:46 58.89972 32.15185 23327 ft 457 kts 315°
2026-05-04 11:47 58.92402 32.11217 22296 ft 454 kts 316°
2026-05-04 11:47 58.94789 32.07323 21579 ft 445 kts 315°
2026-05-04 11:47 58.97138 32.03479 20735 ft 439 kts 315°
2026-05-04 11:47 58.99452 31.99681 19930 ft 433 kts 315°
2026-05-04 11:48 59.01739 31.95920 19152 ft 428 kts 315°
2026-05-04 11:48 59.03993 31.92207 18430 ft 423 kts 315°
2026-05-04 11:48 59.06219 31.88527 17668 ft 418 kts 315°
2026-05-04 11:48 59.08418 31.84880 16863 ft 413 kts 315°
2026-05-04 11:49 59.10590 31.81267 16088 ft 409 kts 315°
2026-05-04 11:49 59.12690 31.77587 15331 ft 404 kts 313°
2026-05-04 11:49 59.14710 31.73827 14583 ft 400 kts 311°
2026-05-04 11:49 59.16672 31.70038 14023 ft 392 kts 310°
2026-05-04 11:50 59.18555 31.66365 13902 ft 374 kts 310°
2026-05-04 11:50 59.20356 31.62868 13790 ft 358 kts 310°
2026-05-04 11:50 59.22087 31.59525 13678 ft 343 kts 310°
2026-05-04 11:50 59.23753 31.56320 13545 ft 330 kts 310°
2026-05-04 11:51 59.25359 31.53245 13416 ft 317 kts 309°
2026-05-04 11:51 59.26907 31.50285 13282 ft 306 kts 309°
2026-05-04 11:51 59.28402 31.47429 13144 ft 295 kts 309°
2026-05-04 11:51 59.29849 31.44657 12958 ft 289 kts 309°
2026-05-04 11:52 59.31258 31.41946 12608 ft 287 kts 309°
2026-05-04 11:52 59.32675 31.39208 12249 ft 285 kts 309°
2026-05-04 11:52 59.34085 31.36484 11901 ft 284 kts 309°
2026-05-04 11:52 59.35486 31.33776 11545 ft 282 kts 309°
2026-05-04 11:53 59.36881 31.31073 11186 ft 281 kts 309°
2026-05-04 11:53 59.38265 31.28386 10837 ft 280 kts 309°
2026-05-04 11:53 59.39637 31.25727 10308 ft 276 kts 309°
2026-05-04 11:53 59.40999 31.23092 9675 ft 274 kts 309°
2026-05-04 11:55 59.50256 31.05068 5121 ft 261 kts 309°
2026-05-04 11:55 59.51536 31.02567 4761 ft 258 kts 309°
2026-05-04 11:56 59.52750 31.00017 4595 ft 254 kts 306°
2026-05-04 11:56 59.53911 30.97385 4499 ft 255 kts 305°
2026-05-04 11:56 59.55055 30.94725 4370 ft 254 kts 305°
2026-05-04 11:56 59.56198 30.92063 4269 ft 255 kts 305°
2026-05-04 11:57 59.57347 30.89399 4151 ft 255 kts 305°
2026-05-04 11:57 59.58498 30.86734 4031 ft 256 kts 306°
2026-05-04 11:57 59.59656 30.84061 3917 ft 256 kts 306°
2026-05-04 11:57 59.60812 30.81387 3803 ft 256 kts 306°
2026-05-04 11:58 59.61966 30.78718 3677 ft 256 kts 306°
2026-05-04 11:58 59.63128 30.76031 3569 ft 258 kts 306°
2026-05-04 11:58 59.64296 30.73329 3451 ft 258 kts 306°
2026-05-04 11:58 59.65435 30.70707 3321 ft 245 kts 306°
2026-05-04 11:59 59.66537 30.68240 3183 ft 234 kts 311°
2026-05-04 11:59 59.67810 30.66301 3067 ft 228 kts 321°
2026-05-04 11:59 59.69073 30.64557 2934 ft 221 kts 320°
2026-05-04 11:59 59.70312 30.62836 2818 ft 214 kts 320°
2026-05-04 12:00 59.71531 30.61132 2691 ft 209 kts 320°
2026-05-04 12:00 59.72675 30.59534 2605 ft 197 kts 320°
2026-05-04 12:00 59.73777 30.58005 2506 ft 185 kts 319°
2026-05-04 12:00 59.74621 30.56356 2471 ft 160 kts 299°
2026-05-04 12:01 59.75026 30.54447 2488 ft 144 kts 284°
2026-05-04 12:01 59.75343 30.52601 2462 ft 139 kts 283°
2026-05-04 12:02 59.77019 30.41814 1486 ft 137 kts 276°
2026-05-04 12:03 59.77306 30.40004 1286 ft 138 kts 284°
2026-05-04 12:03 59.77590 30.38197 1121 ft 138 kts 282°
2026-05-04 12:03 59.77845 30.36352 964 ft 139 kts 284°
2026-05-04 12:03 59.78118 30.34533 757 ft 138 kts 282°
2026-05-04 12:04 59.78370 30.32682 587 ft 142 kts 284°
2026-05-04 12:04 59.78660 30.30819 410 ft 141 kts 284°
2026-05-04 12:04 59.78930 30.28970 232 ft 139 kts 284°
2026-05-04 12:04 59.79200 30.27137 103 ft 137 kts 284°
2026-05-04 12:05 59.79434 30.25561 89 ft 96 kts 287°
2026-05-04 12:05 59.79597 30.24470 88 ft 73 kts 287°
2026-05-04 12:05 59.79733 30.23602 90 ft 59 kts 290°
2026-05-04 12:05 59.79880 30.23113 86 ft 0 kts 321°